Carbondale, IL

11:38 AM CST on November 23, 2017 (GMT -0600)
Southern Illinois

Weather History for KMDH - August, 2013

Change the Weather History Date:

Thursday, August 1, 2013

  Actual Average Record
Temperature  
Mean Temperature 75 °F -  
Max Temperature 86 °F 88 °F 100 °F (1930)
Min Temperature 64 °F 62 °F 50 °F (1918)
Cooling Degree Days 10    
Growing Degree Days 25 (Base 50)    
Moisture  
Dew Point 65 °F    
Average Humidity 78    
Maximum Humidity 100    
Minimum Humidity 38    
Precipitation  
Precipitation 0.01 in - - ()
Sea Level Pressure  
Sea Level Pressure 30.03 in    
Wind  
Wind Speed 4 mph (NNW)    
Max Wind Speed 9 mph    
Max Gust Speed -    
Visibility 8 miles    
Events      
Averages and records for this station are not official NWS values.
T = Trace of Precipitation, MM = Missing Value Source: NWS Daily Summary

Daily Weather History Graph

Daily Weather History Graph

Search for Another Location

Airport or City:

Trip Planner

Search our weather history database for the weather conditions in past years. The results will help you decide how hot, cold, wet, or windy it might be!

Date:

Astronomy

Aug. 01, 2013 Rise Set
Actual Time 6:00 AM CDT 8:05 PM CDT
Civil Twilight 5:31 AM CDT 8:34 PM CDT
Nautical Twilight 4:56 AM CDT 9:09 PM CDT
Astronomical Twilight 4:17 AM CDT 9:48 PM CDT
Moon 1:37 AM CDT (8/1) 4:13 PM CDT (8/1)
Length of Visible Light 15h 02m
Length of Day
14h 04m
Waning Crescent, 23% of the Moon is Illuminated
Aug 1
Waning Crescent
Aug 6
New
Aug 14
First Quarter
Aug 20
Full
Aug 28
Last Quarter

Hourly Weather History & Observations

Time (CDT) Temp. Heat Index Dew Point Humidity Pressure Visibility Wind Dir Wind Speed Gust Speed Precip Events Conditions
12:52 AM 70.0 °F - 66.9 °F 90% 30.02 in 10.0 mi NW 4.6 mph - N/A   Scattered Clouds
1:52 AM 68.0 °F - 64.9 °F 90% 30.01 in 9.0 mi NNW 3.5 mph - N/A   Clear
2:52 AM 66.9 °F - 64.9 °F 93% 30.01 in 8.0 mi NW 4.6 mph - N/A   Clear
3:52 AM 66.9 °F - 64.9 °F 93% 30.02 in 7.0 mi NW 4.6 mph - 0.01 in   Clear
4:52 AM 66.0 °F - 64.9 °F 96% 30.02 in 5.0 mi NNW 4.6 mph - N/A   Clear
5:52 AM 64.9 °F - 63.0 °F 93% 30.03 in 4.0 mi NW 3.5 mph - N/A   Clear
6:11 AM 64.4 °F - 64.4 °F 100% 30.05 in 2.5 mi Calm Calm - N/A   Clear
6:33 AM 64.4 °F - 64.4 °F 100% 30.05 in 2.0 mi Calm Calm - N/A   Partly Cloudy
6:52 AM 66.0 °F - 64.9 °F 96% 30.05 in 2.5 mi Calm Calm - N/A   Partly Cloudy
7:05 AM 66.2 °F - 66.2 °F 100% 30.06 in 3.0 mi Calm Calm - N/A   Clear
7:52 AM 69.1 °F - 66.0 °F 90% 30.06 in 5.0 mi NW 3.5 mph - N/A   Clear
8:52 AM 73.9 °F - 66.9 °F 79% 30.07 in 10.0 mi North 6.9 mph - N/A   Clear
9:52 AM 77.0 °F - 68.0 °F 74% 30.06 in 10.0 mi NNW 6.9 mph - N/A   Scattered Clouds
10:52 AM 80.1 °F 82.7 °F 68.0 °F 67% 30.07 in 10.0 mi Variable 3.5 mph - N/A   Scattered Clouds
11:52 AM 82.0 °F 84.9 °F 68.0 °F 62% 30.07 in 10.0 mi NNW 9.2 mph - N/A   Scattered Clouds
12:52 PM 84.0 °F 85.4 °F 64.0 °F 51% 30.06 in 10.0 mi NNW 6.9 mph - N/A   Partly Cloudy
1:52 PM 84.0 °F 85.4 °F 64.0 °F 51% 30.04 in 10.0 mi North 6.9 mph - N/A   Scattered Clouds
2:52 PM 84.9 °F 85.4 °F 62.1 °F 46% 30.04 in 10.0 mi North 5.8 mph - N/A   Scattered Clouds
3:52 PM 86.0 °F 86.1 °F 61.0 °F 43% 30.03 in 10.0 mi North 8.1 mph - N/A   Scattered Clouds
4:52 PM 86.0 °F 85.0 °F 57.9 °F 38% 30.02 in 10.0 mi Variable 5.8 mph - N/A   Scattered Clouds
5:52 PM 84.9 °F 84.8 °F 60.1 °F 43% 30.00 in 10.0 mi North 4.6 mph - N/A   Clear
6:52 PM 82.9 °F 84.0 °F 63.0 °F 51% 30.00 in 10.0 mi Calm Calm - N/A   Clear
7:52 PM 75.0 °F - 69.1 °F 82% 30.00 in 10.0 mi Calm Calm - N/A   Clear
8:52 PM 69.1 °F - 64.9 °F 87% 30.00 in 10.0 mi Calm Calm - N/A   Clear
9:52 PM 66.9 °F - 64.9 °F 93% 30.01 in 10.0 mi Calm Calm - N/A   Clear
10:52 PM 66.0 °F - 64.0 °F 93% 30.01 in 10.0 mi South 3.5 mph - N/A   Clear
11:52 PM 64.9 °F - 63.0 °F 93% 30.01 in 8.0 mi Calm Calm - N/A   Clear